Helicity
344 297 378 232 326 497 600 590 528 469 639 509 348 277 219 223 319 270 220 216 216 230 264 254 243 194 183 167 132 146 138 139 132 109 35 50 39 12 9 9 42 92 104 104
313 177 167 390 250 285 304 274 469 398 323 370 222 181 283 261 273 243 217 224 227 249 253 252 247 201 186 158 139 142 148 150 148 128 85 44 74 32 36 28 45 71 92 95
287 258 173 79 115 241 427 464 597 623 447 341 296 286 277 261 255 254 242 229 227 243 263 277 255 187 185 159 147 147 148 168 158 184 153 109 81 61 42 39 40 60 90 94
286 167 352 239 329 263 388 479 584 418 246 174 230 397 324 274 279 236 256 234 250 263 271 266 245 187 188 153 149 166 170 147 132 71 157 147 121 89 55 61 63 62 96 96
262 432 375 166 144 259 263 332 316 172 103 170 278 380 326 161 293 267 234 244 282 270 256 264 239 183 165 151 152 152 170 114 91 79 66 110 152 117 75 73 82 70 90 110
489 498 397 279 236 288 253 279 123 212 186 130 308 258 249 312 298 223 202 239 263 238 237 252 232 162 151 149 147 165 146 87 100 105 59 31 87 126 83 88 71 54 84 122
501 563 343 287 310 326 287 212 207 274 230 271 364 315 256 335 226 211 186 203 219 224 227 245 222 165 142 142 150 151 162 100 111 150 55 54 51 85 76 67 48 49 85 122
581 333 290 373 331 242 292 246 232 334 330 324 288 254 278 223 222 170 158 175 196 213 212 220 208 160 137 140 150 161 113 82 109 148 82 43 36 39 59 34 40 54 98 145
642 499 590 445 354 335 357 246 197 309 270 302 282 318 229 233 194 156 134 174 177 190 203 203 195 154 121 153 157 165 79 69 75 144 120 60 20 15 37 22 41 59 124 175
615 560 388 320 245 186 195 302 271 315 295 327 307 276 206 210 171 143 119 151 158 165 177 195 184 156 124 158 134 129 79 79 76 140 144 110 36 10 21 31 49 76 135 195
517 325 218 167 200 210 309 320 299 302 315 307 268 200 185 179 145 115 115 143 144 159 172 188 177 151 124 149 120 98 84 79 64 70 170 169 105 28 46 41 48 90 136 180
415 265 228 229 302 220 330 196 210 236 286 309 282 216 192 150 130 105 103 133 120 140 161 155 170 150 130 147 142 76 81 66 84 44 57 238 140 60 58 73 99 107 147 184
349 307 353 312 258 267 261 186 209 238 289 292 279 232 244 175 127 58 91 109 117 139 155 152 167 159 125 149 139 79 83 49 64 54 24 91 138 91 92 84 129 161 231 225
317 254 175 184 257 158 153 118 174 331 387 355 274 248 208 144 78 78 86 102 112 137 140 142 152 148 129 156 124 108 82 27 80 69 25 25 34 14 60 61 88 194 233 209
117 190 225 197 162 134 195 227 277 287 295 304 274 250 199 108 82 70 95 95 85 115 131 121 114 130 137 160 104 123 64 82 83 42 1 36 12 8 47 61 92 124 156 200
145 117 110 78 119 116 177 209 235 247 215 213 294 239 138 94 67 63 89 80 56 99 115 121 138 158 164 132 91 128 71 15 19 27 -20 57 64 21 40 84 114 151 153 164
142 142 106 83 89 111 185 188 220 222 232 222 240 235 130 69 47 65 88 72 85 106 122 127 121 172 135 142 105 115 119 72 11 48 18 43 50 49 36 57 83 106 125 114
57 70 78 82 78 83 102 164 205 209 203 201 262 204 118 66 43 56 88 53 90 94 98 104 84 85 159 140 89 87 125 108 57 28 41 66 60 69 75 44 73 82 110 109
18 33 52 62 38 32 52 151 191 218 277 267 198 150 83 53 50 69 71 27 22 84 91 86 23 100 182 101 31 90 115 138 137 6 25 97 128 110 102 87 69 80 89 86
-4 9 25 37 16 34 47 126 213 260 273 216 159 112 85 59 43 55 57 7 -22 45 66 73 77 136 133 103 36 101 133 133 155 43 -9 67 170 170 134 118 98 107 97 85
-69 -73 -18 17 5 43 70 136 206 280 208 158 141 102 65 41 37 55 50 4 -57 -42 45 42 59 125 108 77 90 126 139 164 121 152 184 92 175 234 200 191 155 153 135 123
-26 16 14 -7 43 87 107 169 242 267 199 155 101 71 45 42 36 47 39 2 -28 -44 42 54 51 23 60 46 121 122 152 184 164 118 149 198 236 231 261 260 220 155 119 129
46 33 23 50 108 116 145 178 230 221 199 171 94 61 59 36 43 39 19 -3 -39 -46 -3 26 -2 -23 -3 111 144 130 145 180 151 162 136 169 237 293 226 229 243 142 157 188
40 85 92 98 153 157 155 175 239 218 180 134 83 71 45 36 40 36 11 -10 -31 -30 -17 -3 2 -24 -1 148 148 142 142 189 180 116 154 144 185 263 293 264 236 179 145 130
110 123 128 145 138 149 184 217 275 242 206 82 82 50 49 46 37 22 8 -10 -26 -30 -29 -2 6 -10 76 131 141 154 145 184 167 83 146 163 182 208 243 261 234 208 173 182
107 147 111 128 136 179 215 263 257 307 143 112 71 50 38 41 31 21 6 -5 -27 -25 -26 -8 -3 20 38 94 116 149 152 150 182 125 122 189 142 128 166 215 232 231 236 214
100 48 111 146 155 206 223 263 286 197 108 103 57 43 42 40 26 18 6 -6 -20 -29 -25 -18 -16 -3 18 36 84 137 156 144 109 126 92 146 148 170 167 166 177 193 190 208
Wind_Speed
53 57 58 56 57 51 52 55 67 81 73 72 75 81 82 86 87 86 89 88 92 93 94 92 90 85 84 74 62 60 56 51 43 36 30 28 83 89 89 89 93 100 107 111
75 64 60 75 56 53 52 51 62 69 79 68 66 74 82 89 86 87 87 90 93 93 95 95 92 87 86 75 63 60 55 50 42 35 28 26 49 82 86 90 92 96 108 111
80 74 83 70 73 60 60 56 65 76 68 76 85 88 91 90 81 82 81 88 96 94 93 93 91 85 87 75 63 60 56 49 40 32 27 25 27 70 81 89 90 95 104 111
80 93 91 79 66 60 66 65 57 58 65 70 79 84 89 77 75 83 81 89 92 90 91 90 86 81 82 70 61 59 56 48 38 32 23 22 29 61 77 82 90 93 102 110
79 94 93 88 65 73 79 95 60 52 67 73 80 90 91 71 66 74 81 84 85 84 86 87 83 79 81 69 61 59 55 46 41 32 28 20 29 60 72 79 85 92 98 105
80 95 99 77 68 59 68 95 61 64 83 85 84 105 99 77 75 79 78 81 83 86 83 86 81 78 81 71 64 59 56 46 41 32 30 19 17 55 66 73 82 87 94 102
73 88 79 67 56 57 88 93 82 85 88 86 85 83 83 77 75 74 76 83 80 85 83 84 77 77 80 73 65 59 52 43 40 31 27 16 9 46 57 65 76 84 91 98
72 83 99 53 60 76 88 90 94 90 88 83 81 81 79 77 75 76 80 84 81 86 81 81 76 76 79 74 64 58 52 43 42 30 27 17 12 44 55 67 75 82 87 94
64 73 73 68 82 85 85 95 96 93 87 81 85 84 80 78 77 76 80 81 80 84 77 81 76 75 79 75 65 57 51 42 43 33 28 20 17 42 56 70 75 80 84 92
87 77 81 87 89 83 92 96 94 89 85 82 86 78 79 76 76 77 79 80 79 84 80 83 78 74 74 74 65 58 48 40 33 26 29 22 20 46 57 68 73 76 81 89
91 88 97 81 89 107 103 98 94 88 81 82 75 73 76 76 75 76 78 77 78 83 77 81 75 74 76 74 66 60 47 38 27 32 16 17 21 46 56 66 71 74 79 84
98 89 91 103 112 117 110 107 97 89 85 74 68 70 73 73 69 74 77 76 78 81 73 78 73 74 77 74 67 59 49 38 27 14 10 14 22 45 58 63 73 76 82 80
83 85 88 92 101 99 98 99 92 85 77 74 66 67 63 60 63 71 75 72 76 78 64 73 69 74 78 75 68 58 51 35 28 13 24 17 25 41 51 63 71 78 85 84
72 81 97 81 98 99 91 92 84 74 66 60 57 58 55 55 62 68 72 69 73 64 61 70 70 78 75 73 68 55 52 37 22 14 37 33 28 48 53 54 64 72 81 83
71 68 73 86 94 93 91 85 77 70 63 57 54 52 48 55 61 66 66 65 73 60 61 71 77 78 74 72 68 57 51 40 24 18 19 42 35 42 51 53 58 64 67 74
84 83 87 88 97 100 96 87 77 69 58 53 51 47 49 51 56 61 60 65 76 65 55 68 73 71 71 73 68 63 43 42 28 24 15 38 35 39 43 55 58 61 66 68
95 102 103 107 105 103 94 83 69 62 54 45 42 44 45 53 56 59 61 65 61 47 48 59 70 65 70 68 69 64 41 39 31 28 22 33 35 36 45 47 55 63 65 67
77 83 88 88 96 98 93 79 64 54 45 38 40 43 46 52 56 58 61 68 53 47 56 63 72 60 63 68 71 61 40 30 29 29 22 22 34 34 38 48 53 60 66 68
84 91 94 93 93 90 84 75 62 48 40 36 40 41 45 48 49 53 57 66 70 65 43 64 71 56 61 63 70 63 36 25 19 37 31 19 32 32 34 39 46 53 62 68
92 90 91 92 91 86 79 65 52 42 35 33 42 43 42 45 48 51 53 62 47 22 37 54 67 58 64 63 65 64 42 27 22 51 33 10 29 30 32 35 39 43 52 68
98 98 97 93 93 82 64 51 46 38 32 33 37 40 43 44 45 48 51 61 54 30 46 64 78 64 65 67 66 62 49 31 43 36 25 7 20 29 29 31 32 39 49 56
100 100 94 89 83 72 54 47 41 35 28 34 40 38 39 39 43 47 45 55 39 47 68 71 76 74 68 67 67 60 53 19 40 42 45 30 24 26 27 29 31 36 45 48
98 94 90 85 76 62 50 44 38 31 26 36 36 35 36 37 40 47 52 55 48 51 67 70 78 83 72 65 61 62 55 38 37 42 37 31 27 24 23 26 29 36 41 39
97 92 87 79 67 57 47 41 37 28 32 34 33 32 33 35 37 39 47 52 50 52 63 68 73 79 76 60 61 63 62 46 17 42 37 33 28 24 23 21 26 30 33 38
93 90 83 74 63 56 47 40 34 27 32 33 31 28 28 31 35 41 46 49 49 50 57 64 69 74 70 63 62 64 64 54 38 43 38 29 27 26 21 18 23 27 29 33
94 90 81 68 64 56 44 35 32 30 29 31 26 23 27 31 32 37 42 45 46 48 53 60 65 68 72 68 64 62 60 61 48 26 45 34 30 26 20 18 21 24 28 32
87 78 72 66 57 46 35 24 25 28 20 19 20 21 23 26 30 35 39 42 44 45 49 54 60 65 69 71 72 64 59 59 59 46 48 43 38 36 29 28 28 28 30 32
Wind_Direction
334 329 330 332 330 332 326 327 331 326 330 324 331 335 337 340 341 342 345 347 348 348 348 349 348 348 346 344 341 339 334 328 317 305 289 271 272 258 251 247 243 238 234 231
342 345 344 339 338 330 326 324 319 316 317 319 324 337 340 341 341 342 344 346 347 348 348 349 349 349 348 346 344 342 337 331 323 311 291 261 281 260 253 246 241 237 231 229
341 347 340 347 346 341 340 340 336 333 329 341 340 342 342 341 340 340 343 346 347 348 349 350 350 349 349 347 345 344 341 336 326 310 290 260 266 267 253 244 240 236 230 226
338 343 340 346 344 342 334 336 327 326 329 332 335 338 338 336 337 341 344 346 347 348 349 351 351 350 351 348 347 347 344 341 335 327 300 271 276 267 252 244 237 234 227 224
340 336 331 344 351 344 343 337 340 335 337 337 338 339 340 344 346 345 345 345 347 349 349 351 352 352 353 350 350 350 349 349 347 342 331 272 270 264 251 240 234 230 226 222
336 332 334 343 346 349 346 339 352 344 339 338 342 339 342 346 345 344 346 347 349 350 352 354 354 355 355 354 352 353 352 350 350 356 356 345 262 259 245 236 230 227 223 221
329 328 330 331 341 348 342 338 342 337 337 338 335 335 336 339 340 344 346 348 351 351 353 355 356 357 357 356 355 354 352 353 356 4 9 30 2 255 240 233 228 223 221 219
336 331 331 346 346 337 332 331 332 332 331 329 330 331 334 338 340 344 346 349 352 352 355 357 358 360 359 358 356 356 357 0 4 16 23 54 85 254 237 227 223 221 220 217
319 320 325 325 322 323 325 324 325 325 327 328 329 331 335 338 340 344 347 349 353 353 356 359 1 2 1 360 358 359 1 5 15 29 36 64 95 254 233 223 221 219 218 216
322 321 316 321 322 325 327 325 325 325 324 326 326 329 333 336 339 343 347 350 353 354 358 359 2 3 3 2 1 1 4 8 18 32 42 67 99 249 233 224 221 220 217 215
312 317 320 327 329 328 328 329 329 328 327 325 327 328 332 335 338 343 347 351 354 355 359 0 2 4 5 4 4 4 6 10 18 30 48 76 117 239 232 225 221 219 218 216
315 320 321 321 326 329 327 328 328 327 327 327 328 328 332 334 340 342 347 351 354 356 1 2 4 5 6 6 7 7 8 13 19 30 39 111 134 205 227 226 221 219 217 217
315 320 322 322 324 330 330 331 331 329 327 329 331 332 334 339 342 344 347 353 355 358 2 4 5 7 8 7 9 10 10 14 20 37 252 113 137 170 231 222 220 217 216 217
323 325 325 333 331 333 334 333 334 335 335 335 336 338 340 343 343 346 349 354 355 4 6 8 8 8 9 9 11 12 15 20 27 43 265 264 162 192 216 220 216 219 215 215
334 334 328 329 332 334 336 337 336 334 334 336 338 338 343 343 344 347 353 357 355 8 10 11 10 10 10 11 13 15 19 26 32 53 222 285 244 228 223 220 220 217 216 218
333 334 335 336 336 336 336 335 334 335 335 336 339 341 343 347 348 350 358 358 353 8 13 13 13 11 12 13 15 18 24 28 40 56 109 290 288 242 237 226 224 222 219 220
332 333 335 334 336 337 337 337 336 335 336 339 343 348 349 346 350 355 358 357 5 18 17 18 15 14 15 16 17 19 26 32 41 58 84 267 273 255 234 232 227 223 221 221
335 334 334 335 335 336 338 339 339 338 338 343 346 350 350 350 351 355 358 351 12 23 22 21 18 18 18 19 20 23 31 36 47 57 80 243 273 260 244 226 223 219 220 220
337 335 335 334 334 336 337 339 340 342 348 352 345 352 353 353 358 360 360 349 350 13 22 21 20 20 22 23 24 26 35 321 50 52 67 248 285 269 255 242 234 230 225 220
335 336 336 335 335 335 336 340 345 347 352 355 344 345 358 358 359 359 2 347 342 30 27 26 23 26 25 26 28 30 37 319 313 39 69 185 289 278 265 254 241 237 229 220
332 332 333 335 335 336 338 343 346 347 352 352 351 350 350 357 1 1 1 342 315 302 30 24 17 28 28 28 31 34 38 318 326 320 303 207 266 279 266 258 248 242 230 220
329 330 331 334 334 334 338 341 344 347 354 347 339 346 351 359 360 359 4 346 295 312 6 15 16 24 29 32 34 38 41 358 322 328 332 312 296 291 268 252 251 238 222 218
325 326 328 330 330 330 331 333 337 342 349 339 338 344 351 358 358 352 342 336 308 318 354 13 4 13 30 36 38 39 42 48 325 328 327 320 307 293 283 257 245 229 217 221
322 322 324 326 327 326 323 325 329 336 334 337 338 342 348 353 355 359 342 330 315 323 348 2 5 3 27 40 41 42 43 48 355 330 327 326 318 304 293 265 234 232 232 230
318 319 321 321 322 320 316 317 323 327 324 328 333 341 350 351 350 344 336 334 319 328 341 354 6 8 31 41 43 44 45 48 53 335 330 323 320 317 299 271 239 241 246 249
311 313 314 316 316 319 314 311 310 313 316 320 331 344 341 342 351 342 336 336 327 328 343 354 7 19 21 37 43 46 49 48 52 352 339 327 325 321 306 291 284 275 273 271
307 311 313 315 318 321 314 307 304 303 313 324 330 336 347 354 351 338 336 338 334 330 337 349 359 11 19 27 34 46 50 51 51 56 346 339 334 333 323 317 311 296 288 291